Location: Unspecified
(41.5516°N, 88.1098°W)
Time: 00:25:04
(UTC-05:00)

Resurs 1-4 Rocket - Visible Passes

Search period start: 31 March 2015 00:00
Search period end: 10 April 2015 00:00
Orbit: 800 x 815 km, 98.4° (Epoch: 29 March)

Date Brightness Start Highest point End Pass type
(mag) Time Alt. Az. Time Alt. Az. Time Alt. Az.
31 Mar 4.0 03:35:01 10° NE 03:39:08 24° E 03:41:30 18° SE visible
31 Mar 2.5 05:14:17 10° N 05:19:14 43° WNW 05:22:36 19° SW visible
01 Apr 4.6 03:11:48 10° ENE 03:14:20 14° E 03:16:53 11° ESE visible
01 Apr 2.0 04:49:36 10° N 04:54:51 72° WNW 04:57:58 25° SSW visible
02 Apr 2.3 04:25:08 10° NNE 04:30:23 70° E 04:33:20 26° S visible
02 Apr 3.7 06:06:31 10° NNW 06:09:45 16° WNW 06:12:47 10° W visible
03 Apr 3.1 04:00:53 10° NNE 04:05:49 41° E 04:08:42 23° SSE visible
03 Apr 3.2 05:41:13 10° N 05:45:31 26° WNW 05:49:42 10° WSW visible
04 Apr 4.0 03:36:55 10° NE 03:41:09 25° E 03:44:04 16° SE visible
04 Apr 2.6 05:16:17 10° N 05:21:12 41° WNW 05:25:10 15° SW visible
05 Apr 4.6 03:13:35 10° NE 03:16:21 15° E 03:19:22 10° ESE visible
05 Apr 2.0 04:51:35 10° N 04:56:49 68° WNW 05:00:31 20° SSW visible
06 Apr 2.2 04:27:06 10° NNE 04:32:22 74° ESE 04:35:53 21° S visible
07 Apr 3.1 04:02:49 10° NNE 04:07:49 43° E 04:11:14 19° SSE visible
07 Apr 3.2 05:43:15 10° NNW 05:47:29 24° WNW 05:51:35 10° WSW visible
08 Apr 3.9 03:38:49 10° NE 03:43:09 26° E 03:46:35 14° SE visible
08 Apr 2.6 05:18:18 10° N 05:23:10 39° WNW 05:27:41 12° SW visible
09 Apr 4.6 03:15:24 10° NE 03:18:22 16° E 03:21:35 10° SE visible
09 Apr 2.1 04:53:35 10° N 04:58:48 64° WNW 05:03:02 16° SSW visible
